Satellite-Ground Cal/Val Site Overpasses Predictions

Prediction of Satellite NPP Overpassing Cal/Val Site: Antarctic Dome C

Ground Cal/Val Site Location: Latitude: -75.10, Longitude: 123.35; Satellite-Ground Site NADIR distance within 100 km.

Table of predicted overpasses for the next 14.0 days since TLE Epoch: 12/9/2023
Interval Starting Time Ending Time Minimum Distance Time Minimum Distance (km)
1 12/10/2023 15:08:06 12/10/2023 15:08:14 12/10/2023 15:08:10 95.31
2 12/11/2023 14:49:04 12/11/2023 14:49:33 12/11/2023 14:49:19 15.97
3 12/13/2023 07:31:53 12/13/2023 07:32:23 12/13/2023 07:32:08 0.39
4 12/16/2023 14:55:17 12/16/2023 14:55:46 12/16/2023 14:55:31 20.18
5 12/17/2023 14:36:35 12/17/2023 14:36:49 12/17/2023 14:36:42 86.93
6 12/18/2023 07:38:05 12/18/2023 07:38:33 12/18/2023 07:38:19 35.92
7 12/19/2023 07:19:19 12/19/2023 07:19:39 12/19/2023 07:19:29 74.20
8 12/21/2023 15:01:31 12/21/2023 15:01:55 12/21/2023 15:01:43 56.82
